Time,TemperatureF,DewpointF,PressureIn,WindDirection,WindDirectionDegrees,WindSpeedMPH,WindSpeedGustMPH,Humidity,HourlyPrecipIn,Conditions,Clouds,dailyrainin,SoftwareType,DateUTC
2013-05-13 00:00:00,53.4,52.9,30.03,West,266,8.0,14.0,98,0.00,CLR,,0.00,WeatherDisplay:10.37,2013-05-13 07:00:00,
2013-05-13 00:15:00,53.6,53.0,30.03,WSW,251,8.0,14.0,98,0.00,CLR,,0.00,WeatherDisplay:10.37,2013-05-13 07:15:00,
2013-05-13 00:30:00,53.4,52.9,30.03,West,277,13.0,15.0,98,0.00,CLR,,0.00,WeatherDisplay:10.37,2013-05-13 07:30:00,
2013-05-13 00:45:00,53.4,52.9,30.03,West,271,10.0,15.0,98,0.00,CLR,,0.00,WeatherDisplay:10.37,2013-05-13 07:45:00,
2013-05-13 01:00:00,53.4,52.9,30.03,West,278,14.0,17.0,98,0.00,CLR,,0.00,WeatherDisplay:10.37,2013-05-13 08:00:00,
2013-05-13 01:15:00,53.3,52.8,30.03,WNW,283,10.0,18.0,98,0.00,CLR,,0.00,WeatherDisplay:10.37,2013-05-13 08:15:00,
2013-05-13 01:30:00,53.1,52.5,30.00,WSW,255,9.0,17.0,98,0.00,CLR,,0.00,WeatherDisplay:10.37,2013-05-13 08:30:00,
2013-05-13 01:45:00,52.8,52.2,30.00,West,270,10.0,16.0,98,0.00,CLR,,0.00,WeatherDisplay:10.37,2013-05-13 08:45:00,
2013-05-13 02:00:00,52.7,52.2,30.03,West,271,9.0,15.0,98,0.00,CLR,,0.00,WeatherDisplay:10.37,2013-05-13 09:00:00,
2013-05-13 02:15:00,52.5,52.0,30.00,West,280,12.0,15.0,98,0.00,CLR,,0.00,WeatherDisplay:10.37,2013-05-13 09:15:00,
2013-05-13 02:30:00,52.5,52.0,30.00,West,275,8.0,16.0,98,0.00,CLR,,0.00,WeatherDisplay:10.37,2013-05-13 09:30:00,
2013-05-13 02:45:00,52.3,51.8,30.00,WSW,258,7.0,12.0,98,0.00,CLR,,0.00,WeatherDisplay:10.37,2013-05-13 09:45:00,
2013-05-13 03:00:00,52.3,51.8,30.00,West,274,8.0,14.0,98,0.00,CLR,,0.00,WeatherDisplay:10.37,2013-05-13 10:00:00,
2013-05-13 03:15:00,52.5,52.0,30.00,West,262,7.0,12.0,98,0.00,CLR,,0.00,WeatherDisplay:10.37,2013-05-13 10:15:00,
2013-05-13 03:30:00,52.7,52.2,30.00,West,264,7.0,13.0,98,0.00,CLR,,0.00,WeatherDisplay:10.37,2013-05-13 10:30:00,
2013-05-13 03:45:00,53.1,52.5,30.00,West,266,6.0,13.0,98,0.00,CLR,,0.00,WeatherDisplay:10.37,2013-05-13 10:45:00,
2013-05-13 04:00:00,53.2,52.7,30.00,WSW,258,8.0,11.0,98,0.00,CLR,,0.00,WeatherDisplay:10.37,2013-05-13 11:00:00,
2013-05-13 04:15:00,53.6,53.0,30.00,WSW,245,7.0,12.0,98,0.00,CLR,,0.00,WeatherDisplay:10.37,2013-05-13 11:15:00,
2013-05-13 04:30:00,53.6,53.0,30.00,WSW,256,8.0,12.0,98,0.00,CLR,,0.00,WeatherDisplay:10.37,2013-05-13 11:30:00,
2013-05-13 04:45:00,53.6,53.0,30.00,West,268,8.0,13.0,98,0.00,CLR,,0.00,WeatherDisplay:10.37,2013-05-13 11:45:00,
2013-05-13 04:59:00,53.6,53.0,30.00,West,264,7.0,13.0,98,0.00,CLR,,0.00,WeatherDisplay:10.37,2013-05-13 11:59:00,
2013-05-13 05:15:00,53.6,53.0,30.03,West,269,8.0,14.0,98,0.00,CLR,,0.00,WeatherDisplay:10.37,2013-05-13 12:15:00,
2013-05-13 05:30:00,53.6,53.0,30.00,West,263,8.0,12.0,98,0.00,CLR,,0.00,WeatherDisplay:10.37,2013-05-13 12:30:00,
2013-05-13 05:45:00,53.6,53.0,30.00,West,269,10.0,15.0,98,0.00,CLR,,0.00,WeatherDisplay:10.37,2013-05-13 12:45:00,
2013-05-13 06:15:00,53.4,52.9,30.03,West,269,10.0,14.0,98,0.00,CLR,,0.00,WeatherDisplay:10.37,2013-05-13 13:15:00,
2013-05-13 06:44:00,53.2,52.7,30.03,West,268,7.0,13.0,98,0.00,CLR,,0.00,WeatherDisplay:10.37,2013-05-13 13:44:00,
2013-05-13 06:59:00,53.1,52.5,30.03,West,263,8.0,13.0,98,0.00,CLR,,0.00,WeatherDisplay:10.37,2013-05-13 13:59:00,
2013-05-13 07:14:00,53.1,52.5,30.03,West,276,8.0,12.0,98,0.00,CLR,,0.00,WeatherDisplay:10.37,2013-05-13 14:14:00,
2013-05-13 07:29:00,52.9,52.3,30.03,West,272,8.0,13.0,98,0.00,CLR,,0.00,WeatherDisplay:10.37,2013-05-13 14:29:00,
2013-05-13 07:44:00,53.2,52.7,30.03,WSW,257,8.0,12.0,98,0.00,CLR,,0.00,WeatherDisplay:10.37,2013-05-13 14:44:00,
2013-05-13 08:00:00,53.1,52.5,30.06,West,278,9.0,15.0,98,0.00,CLR,,0.00,WeatherDisplay:10.37,2013-05-13 15:00:00,
2013-05-13 08:14:00,53.6,53.0,30.06,West,272,8.0,14.0,98,0.00,CLR,,0.00,WeatherDisplay:10.37,2013-05-13 15:14:00,
2013-05-13 08:29:00,53.5,52.9,30.06,West,279,14.0,16.0,98,0.00,CLR,,0.00,WeatherDisplay:10.37,2013-05-13 15:29:00,
2013-05-13 08:44:00,53.5,53.0,30.06,WNW,288,16.0,20.0,98,0.00,CLR,,0.00,WeatherDisplay:10.37,2013-05-13 15:44:00,
2013-05-13 08:59:00,53.8,53.3,30.06,West,281,14.0,15.0,98,0.00,CLR,,0.00,WeatherDisplay:10.37,2013-05-13 15:59:00,
2013-05-13 09:14:00,53.9,53.3,30.06,West,277,16.0,20.0,98,0.00,CLR,,0.00,WeatherDisplay:10.37,2013-05-13 16:14:00,
2013-05-13 09:29:00,54.3,53.8,30.06,West,281,16.0,20.0,98,0.00,CLR,,0.00,WeatherDisplay:10.37,2013-05-13 16:29:00,
2013-05-13 09:44:00,54.9,54.3,30.06,West,280,14.0,20.0,98,0.00,CLR,,0.00,WeatherDisplay:10.37,2013-05-13 16:44:00,
2013-05-13 09:59:00,55.7,55.1,30.06,West,281,12.0,15.0,98,0.00,CLR,,0.00,WeatherDisplay:10.37,2013-05-13 16:59:00,
2013-05-13 10:14:00,56.4,55.8,30.06,West,276,12.0,15.0,98,0.00,CLR,,0.00,WeatherDisplay:10.37,2013-05-13 17:14:00,
2013-05-13 10:29:00,56.3,55.7,30.06,WNW,285,15.0,17.0,98,0.00,CLR,,0.00,WeatherDisplay:10.37,2013-05-13 17:29:00,
2013-05-13 10:44:00,57.3,56.7,30.06,West,272,12.0,17.0,98,0.00,CLR,,0.00,WeatherDisplay:10.37,2013-05-13 17:44:00,
2013-05-13 11:00:00,58.0,57.4,30.06,West,270,10.0,15.0,98,0.00,CLR,,0.00,WeatherDisplay:10.37,2013-05-13 18:00:00,
2013-05-13 11:14:00,59.2,58.6,30.06,West,262,8.0,14.0,98,0.00,CLR,,0.00,WeatherDisplay:10.37,2013-05-13 18:14:00,
2013-05-13 11:29:00,60.4,59.8,30.06,West,261,7.0,13.0,98,0.00,CLR,,0.00,WeatherDisplay:10.37,2013-05-13 18:29:00,
2013-05-13 11:44:00,61.5,61.0,30.06,WSW,255,8.0,12.0,98,0.00,CLR,,0.00,WeatherDisplay:10.37,2013-05-13 18:44:00,
2013-05-13 11:59:00,62.4,61.8,30.06,WSW,256,7.0,14.0,98,0.00,CLR,,0.00,WeatherDisplay:10.37,2013-05-13 18:59:00,
2013-05-13 12:14:00,63.1,62.6,30.09,WSW,248,9.0,12.0,98,0.00,CLR,,0.00,WeatherDisplay:10.37,2013-05-13 19:14:00,
2013-05-13 12:29:00,64.2,63.6,30.06,West,263,7.0,10.0,98,0.00,CLR,,0.00,WeatherDisplay:10.37,2013-05-13 19:29:00,
2013-05-13 12:44:00,64.3,63.4,30.06,WSW,250,8.0,12.0,97,0.00,CLR,,0.00,WeatherDisplay:10.37,2013-05-13 19:44:00,
2013-05-13 12:59:00,64.4,63.2,30.06,West,259,8.0,13.0,96,0.00,CLR,,0.00,WeatherDisplay:10.37,2013-05-13 19:59:00,
2013-05-13 13:14:00,64.8,63.6,30.06,WSW,256,7.0,13.0,96,0.00,CLR,,0.00,WeatherDisplay:10.37,2013-05-13 20:14:00,
2013-05-13 13:29:00,64.4,62.7,30.06,West,270,9.0,15.0,94,0.00,CLR,,0.00,WeatherDisplay:10.37,2013-05-13 20:29:00,
2013-05-13 13:44:00,65.7,63.9,30.06,West,259,9.0,14.0,94,0.00,CLR,,0.00,WeatherDisplay:10.37,2013-05-13 20:44:00,
2013-05-13 13:59:00,66.9,64.8,30.06,West,259,6.0,13.0,93,0.00,CLR,,0.00,WeatherDisplay:10.37,2013-05-13 20:59:00,
2013-05-13 14:14:00,67.1,64.4,30.06,West,264,9.0,11.0,91,0.00,CLR,,0.00,WeatherDisplay:10.37,2013-05-13 21:14:00,
2013-05-13 14:29:00,67.1,64.4,30.03,WSW,249,8.0,13.0,91,0.00,CLR,,0.00,WeatherDisplay:10.37,2013-05-13 21:29:00,
2013-05-13 14:44:00,67.1,64.4,30.03,WSW,251,8.0,13.0,91,0.00,CLR,,0.00,WeatherDisplay:10.37,2013-05-13 21:44:00,
2013-05-13 14:59:00,66.0,63.6,30.03,WSW,242,9.0,13.0,92,0.00,CLR,,0.00,WeatherDisplay:10.37,2013-05-13 21:59:00,
2013-05-13 15:14:00,66.4,63.7,30.03,WSW,243,10.0,14.0,91,0.00,CLR,,0.00,WeatherDisplay:10.37,2013-05-13 22:14:00,
2013-05-13 15:29:00,66.0,63.6,30.03,WSW,244,10.0,14.0,92,0.00,CLR,,0.00,WeatherDisplay:10.37,2013-05-13 22:29:00,
2013-05-13 15:44:00,66.0,63.6,30.03,WSW,240,10.0,13.0,92,0.00,CLR,,0.00,WeatherDisplay:10.37,2013-05-13 22:44:00,
2013-05-13 15:59:00,65.5,63.1,30.03,WSW,244,10.0,15.0,92,0.00,CLR,,0.00,WeatherDisplay:10.37,2013-05-13 22:59:00,
2013-05-13 16:14:00,65.8,63.5,30.00,WSW,245,12.0,14.0,92,0.00,CLR,,0.00,WeatherDisplay:10.37,2013-05-13 23:14:00,
2013-05-13 16:29:00,65.7,63.3,30.00,WSW,241,10.0,14.0,92,0.00,CLR,,0.00,WeatherDisplay:10.37,2013-05-13 23:29:00,
2013-05-13 16:44:00,66.6,63.9,30.00,SW,231,9.0,14.0,91,0.00,CLR,,0.00,WeatherDisplay:10.37,2013-05-13 23:44:00,
2013-05-13 16:59:00,66.1,63.1,30.00,West,265,10.0,17.0,90,0.00,CLR,,0.00,WeatherDisplay:10.37,2013-05-13 23:59:00,
2013-05-13 17:14:00,62.5,61.0,30.00,WNW,289,17.0,21.0,95,0.00,CLR,,0.00,WeatherDisplay:10.37,2013-05-14 00:14:00,
2013-05-13 17:29:00,62.2,61.1,30.00,WNW,292,14.0,20.0,96,0.00,CLR,,0.00,WeatherDisplay:10.37,2013-05-14 00:29:00,
2013-05-13 17:44:00,62.5,61.3,30.00,West,278,10.0,18.0,96,0.00,CLR,,0.00,WeatherDisplay:10.37,2013-05-14 00:44:00,
2013-05-13 17:59:00,63.7,62.2,30.00,West,280,8.0,14.0,95,0.00,CLR,,0.00,WeatherDisplay:10.37,2013-05-14 00:59:00,
2013-05-13 18:14:00,64.8,62.1,29.97,WSW,250,8.0,13.0,91,0.00,CLR,,0.00,WeatherDisplay:10.37,2013-05-14 01:14:00,
2013-05-13 18:29:00,64.9,61.9,29.97,WSW,248,9.0,14.0,90,0.00,CLR,,0.00,WeatherDisplay:10.37,2013-05-14 01:29:00,
2013-05-13 18:44:00,64.8,61.4,29.97,SW,233,8.0,14.0,89,0.00,CLR,,0.00,WeatherDisplay:10.37,2013-05-14 01:44:00,
2013-05-13 18:59:00,65.1,61.8,29.97,WSW,251,6.0,9.0,89,0.00,CLR,,0.00,WeatherDisplay:10.37,2013-05-14 01:59:00,
2013-05-13 19:14:00,61.5,59.2,29.97,WNW,285,15.0,18.0,92,0.00,CLR,,0.00,WeatherDisplay:10.37,2013-05-14 02:14:00,
2013-05-13 19:29:00,60.6,59.2,29.97,WNW,292,16.0,20.0,95,0.00,CLR,,0.00,WeatherDisplay:10.37,2013-05-14 02:29:00,
2013-05-13 19:44:00,59.3,58.4,29.97,WNW,291,14.0,21.0,97,0.00,CLR,,0.00,WeatherDisplay:10.37,2013-05-14 02:44:00,
2013-05-13 19:59:00,58.1,57.5,29.97,WNW,290,15.0,19.0,98,0.00,CLR,,0.00,WeatherDisplay:10.37,2013-05-14 02:59:00,
2013-05-13 20:14:00,57.2,56.6,29.97,WNW,292,17.0,20.0,98,0.00,CLR,,0.00,WeatherDisplay:10.37,2013-05-14 03:14:00,
2013-05-13 20:29:00,56.6,56.0,29.94,WNW,291,16.0,21.0,98,0.00,CLR,,0.00,WeatherDisplay:10.37,2013-05-14 03:29:00,
2013-05-13 20:44:00,56.1,55.6,29.94,WNW,288,14.0,21.0,98,0.00,CLR,,0.00,WeatherDisplay:10.37,2013-05-14 03:44:00,
2013-05-13 20:59:00,55.9,55.4,29.94,WNW,292,12.0,17.0,98,0.00,CLR,,0.00,WeatherDisplay:10.37,2013-05-14 03:59:00,
2013-05-13 21:14:00,55.8,55.2,29.94,WNW,292,12.0,15.0,98,0.00,CLR,,0.00,WeatherDisplay:10.37,2013-05-14 04:14:00,
2013-05-13 21:29:00,55.6,55.0,29.94,WNW,297,13.0,18.0,98,0.00,CLR,,0.00,WeatherDisplay:10.37,2013-05-14 04:29:00,
2013-05-13 21:44:00,55.4,54.8,29.94,WNW,299,12.0,15.0,98,0.00,CLR,,0.00,WeatherDisplay:10.37,2013-05-14 04:44:00,
2013-05-13 21:59:00,55.2,54.7,29.94,WNW,293,13.0,15.0,98,0.00,CLR,,0.00,WeatherDisplay:10.37,2013-05-14 04:59:00,
2013-05-13 22:14:00,55.0,54.5,29.94,WNW,292,12.0,15.0,98,0.00,CLR,,0.00,WeatherDisplay:10.37,2013-05-14 05:14:00,
2013-05-13 22:30:00,54.9,54.3,29.97,WNW,292,8.0,12.0,98,0.00,CLR,,0.00,WeatherDisplay:10.37,2013-05-14 05:30:00,
2013-05-13 22:45:00,54.5,53.9,29.94,NNW,338,1.0,8.0,98,0.00,CLR,,0.00,WeatherDisplay:10.37,2013-05-14 05:45:00,
2013-05-13 23:00:00,54.1,53.6,29.94,South,174,3.0,6.0,98,0.00,CLR,,0.00,WeatherDisplay:10.37,2013-05-14 06:00:00,
2013-05-13 23:15:00,54.1,53.6,29.97,WSW,254,5.0,8.0,98,0.00,CLR,,0.00,WeatherDisplay:10.37,2013-05-14 06:15:00,
2013-05-13 23:30:00,54.3,53.8,29.94,WNW,288,8.0,12.0,98,0.00,CLR,,0.00,WeatherDisplay:10.37,2013-05-14 06:30:00,
2013-05-13 23:45:00,54.3,53.8,29.94,West,271,7.0,11.0,98,0.00,CLR,,0.00,WeatherDisplay:10.37,2013-05-14 06:45:00,